EW5545 Weather Reports


Display with metric or nautical units.
time (UTC)temp
F
wind
direction
speed
MPH
gust
MPH
rain 1hr
in
rain 24hr
in
rain mn
in
humidity
%
barometer
mb
20260903235018 74 253 0.0 3.0 0.00 0.00 0.00 68 1016.5
20260903234518 74 241 0.0 3.0 0.00 0.00 0.00 68 1016.5
20260903234018 74 228 0.0 2.0 0.00 0.00 0.00 67 1016.4
20260903233517 74 230 0.0 3.0 0.00 0.00 0.00 68 1016.5
20260903233019 74 247 2.0 5.0 0.00 0.00 0.00 68 1016.5
20260903232517 74 250 0.0 3.0 0.00 0.00 0.00 68 1016.5
20260903232018 74 257 2.0 5.0 0.00 0.00 0.00 68 1016.4
20260903231517 74 245 2.0 3.0 0.00 0.00 0.00 68 1016.4
20260903231015 74 238 2.0 3.0 0.00 0.00 0.00 68 1016.5
20260903230517 74 247 2.0 3.0 0.00 0.00 0.00 68 1016.5
20260903230019 74 252 1.0 3.0 0.00 0.00 0.00 68 1016.6
20260903225517 74 256 0.0 3.0 0.00 0.00 0.00 68 1016.6
20260903225017 74 257 0.0 2.0 0.00 0.00 0.00 68 1016.6
20260903224512 74 29 0.0 3.0 0.00 0.00 0.00 68 1016.6
20260903224010 74 52 1.0 3.0 0.00 0.00 0.00 69 1016.6
20260903223517 74 266 1.0 3.0 0.00 0.00 0.00 69 1016.7
20260903223013 74 268 0.0 3.0 0.00 0.00 0.00 69 1016.6
20260903222511 74 291 1.0 3.0 0.00 0.00 0.00 70 1016.6
20260903221517 74 237 0.0 3.0 0.00 0.00 0.00 70 1016.6
20260903220512 74 238 1.0 2.0 0.00 0.00 0.00 69 1016.6
20260903215019 74 246 1.0 3.0 0.00 0.00 0.00 68 1016.7
20260903214518 74 208 1.0 5.0 0.00 0.00 0.00 68 1016.7
20260903214018 74 239 1.0 3.0 0.00 0.00 0.00 69 1016.7
20260903213512 74 251 0.0 2.0 0.00 0.00 0.00 69 1016.7
20260903212510 74 244 1.0 2.0 0.00 0.00 0.00 70 1016.7
20260903212018 74 59 1.0 6.0 0.00 0.00 0.00 72 1016.6
20260903210509 74 247 2.0 5.0 0.00 0.00 0.00 76 1016.6
20260903210020 74 231 2.0 3.0 0.00 0.00 0.00 76 1016.6
20260903205517 74 245 2.0 3.0 0.00 0.00 0.00 77 1016.6
20260903205018 74 245 1.0 3.0 0.00 0.00 0.00 77 1016.6
20260903204517 74 245 1.0 3.0 0.00 0.00 0.00 77 1016.5
20260903204011 74 245 1.0 3.0 0.00 0.00 0.00 77 1016.6
20260903203516 74 245 1.0 2.0 0.00 0.00 0.00 76 1016.6
20260903203019 75 275 1.0 2.0 0.00 0.00 0.00 74 1016.6
20260903202516 76 275 0.0 1.0 0.00 0.00 0.00 73 1016.6
20260903202017 77 275 0.0 1.0 0.00 0.00 0.00 73 1016.6
20260903201518 77 341 1.0 3.0 0.00 0.00 0.00 73 1016.5
20260903200517 77 344 2.0 3.0 0.00 0.00 0.00 72 1016.6
20260903200019 78 11 1.0 3.0 0.00 0.00 0.00 72 1016.5
20260903195511 78 28 1.0 5.0 0.00 0.00 0.00 71 1016.5
20260903194517 78 49 1.0 5.0 0.00 0.00 0.00 71 1016.4
20260903194018 78 42 2.0 3.0 0.00 0.00 0.00 71 1016.4
20260903193517 78 48 1.0 3.0 0.00 0.00 0.00 70 1016.3
20260903193019 78 37 2.0 3.0 0.00 0.00 0.00 70 1016.4
20260903192517 78 26 2.0 5.0 0.00 0.00 0.00 70 1016.4
20260903192018 78 57 2.0 3.0 0.00 0.00 0.00 69 1016.3
20260903191517 79 39 1.0 5.0 0.00 0.00 0.00 68 1016.3
20260903190518 79 29 2.0 5.0 0.00 0.00 0.00 67 1016.1
20260903185511 79 336 2.0 5.0 0.00 0.00 0.00 67 1016.0
20260903185018 79 38 2.0 7.0 0.00 0.00 0.00 66 1016.0
20260903184518 79 49 2.0 5.0 0.00 0.00 0.00 66 1016.0
20260903184017 79 53 3.0 7.0 0.00 0.00 0.00 66 1015.9
20260903183509 79 60 3.0 8.0 0.00 0.00 0.00 65 1015.8
20260903183018 80 47 3.0 8.0 0.00 0.00 0.00 65 1015.8
20260903182510 80 54 2.0 7.0 0.00 0.00 0.00 66 1015.7
20260903182017 80 52 3.0 7.0 0.00 0.00 0.00 65 1015.7
20260903181516 80 44 3.0 6.0 0.00 0.00 0.00 65 1015.7
20260903181018 80 43 3.0 6.0 0.00 0.00 0.00 64 1015.6
20260903180517 80 52 2.0 3.0 0.00 0.00 0.00 63 1015.6
20260903180018 80 58 2.0 5.0 0.00 0.00 0.00 62 1015.6
20260903175517 81 49 2.0 5.0 0.00 0.00 0.00 61 1015.6
20260903175018 81 42 2.0 5.0 0.00 0.00 0.00 60 1015.6
20260903174517 81 46 2.0 5.0 0.00 0.00 0.00 59 1015.5
20260903174018 81 51 3.0 6.0 0.00 0.00 0.00 58 1015.5
20260903173510 81 45 2.0 7.0 0.00 0.00 0.00 57 1015.4
20260903173018 81 47 4.0 10.0 0.00 0.00 0.00 56 1015.4
20260903172517 82 46 3.0 10.0 0.00 0.00 0.00 55 1015.4
20260903172017 82 46 4.0 9.0 0.00 0.00 0.00 54 1015.3
20260903171019 82 60 5.0 8.0 0.00 0.00 0.00 52 1015.4
20260903170516 83 45 6.0 12.0 0.00 0.00 0.00 52 1015.3
20260903165517 83 51 5.0 10.0 0.00 0.00 0.00 49 1015.3
20260903165018 84 48 3.0 7.0 0.00 0.00 0.00 48 1015.3
20260903164517 84 48 5.0 12.0 0.00 0.00 0.00 48 1015.3
20260903164017 84 46 6.0 9.0 0.00 0.00 0.00 47 1015.3
20260903163517 84 63 7.0 13.0 0.00 0.00 0.00 47 1015.3
20260903162011 84 46 7.0 14.0 0.00 0.00 0.00 48 1015.2
20260903161517 85 53 6.0 12.0 0.00 0.00 0.00 47 1015.3
20260903161017 85 44 9.0 14.0 0.00 0.00 0.00 46 1015.3
20260903160516 85 42 8.0 16.0 0.00 0.00 0.00 45 1015.3
20260903160018 85 49 7.0 14.0 0.00 0.00 0.00 46 1015.2
20260903155511 85 47 7.0 12.0 0.00 0.00 0.00 45 1015.2
20260903155018 85 53 7.0 14.0 0.00 0.00 0.00 44 1015.2
20260903154516 86 55 8.0 17.0 0.00 0.00 0.00 43 1015.2
20260903154018 86 48 7.0 12.0 0.00 0.00 0.00 42 1015.1
20260903153508 86 49 8.0 18.0 0.00 0.00 0.00 42 1015.2
20260903153018 86 50 5.0 12.0 0.00 0.00 0.00 42 1015.2
20260903152510 86 38 6.0 17.0 0.00 0.00 0.00 43 1015.1
20260903152017 86 39 6.0 13.0 0.00 0.00 0.00 42 1015.1
20260903151517 86 54 7.0 15.0 0.00 0.00 0.00 42 1015.1
20260903151017 86 48 7.0 13.0 0.00 0.00 0.00 42 1015.0
20260903150517 86 42 7.0 15.0 0.00 0.00 0.00 42 1015.0
20260903150012 86 48 11.0 18.0 0.00 0.00 0.00 41 1015.1
20260903145015 87 49 9.0 17.0 0.00 0.00 0.00 39 1015.1
20260903144018 87 39 7.0 13.0 0.00 0.00 0.00 40 1015.1
20260903143515 87 52 5.0 12.0 0.00 0.00 0.00 38 1015.1
20260903143018 87 42 9.0 15.0 0.00 0.00 0.00 36 1015.1
20260903142516 87 47 9.0 17.0 0.00 0.00 0.00 41 1015.1
20260903142018 87 49 10.0 17.0 0.00 0.00 0.00 41 1015.1
20260903141513 87 47 9.0 16.0 0.00 0.00 0.00 42 1015.1
20260903141018 87 41 9.0 15.0 0.00 0.00 0.00 40 1015.1
20260903140517 87 47 10.0 20.0 0.00 0.00 0.00 40 1015.0
20260903140016 88 38 7.0 12.0 0.00 0.00 0.00 40 1015.1
20260903135509 88 23 7.0 12.0 0.00 0.00 0.00 39 1015.1
20260903135017 88 42 7.0 13.0 0.00 0.00 0.00 39 1015.1
20260903134518 88 51 7.0 12.0 0.00 0.00 0.00 41 1015.1
20260903133517 88 55 7.0 13.0 0.00 0.00 0.00 39 1015.2
20260903133013 88 46 7.0 18.0 0.00 0.00 0.00 39 1015.2
20260903132017 88 33 7.0 15.0 0.00 0.00 0.00 40 1015.2
20260903131517 88 52 7.0 15.0 0.00 0.00 0.00 39 1015.2
20260903130019 88 42 7.0 21.0 0.00 0.00 0.00 41 1015.2
20260903125010 88 55 12.0 20.0 0.00 0.00 0.00 40 1015.3
20260903124517 88 42 9.0 20.0 0.00 0.00 0.00 42 1015.3
20260903123516 88 52 10.0 16.0 0.00 0.00 0.00 41 1015.3
20260903122519 88 53 10.0 17.0 0.00 0.00 0.00 41 1015.4
20260903122017 88 50 8.0 17.0 0.00 0.00 0.00 41 1015.5
20260903121518 88 45 7.0 15.0 0.00 0.00 0.00 41 1015.4
20260903121016 88 42 8.0 15.0 0.00 0.00 0.00 42 1015.4
20260903120516 88 56 9.0 14.0 0.00 0.00 0.00 44 1015.5
20260903120017 88 44 10.0 17.0 0.00 0.00 0.00 44 1015.5
20260903115516 88 42 7.0 13.0 0.00 0.00 0.00 43 1015.5
20260903115017 88 55 8.0 14.0 0.00 0.00 0.00 43 1015.5
20260903114516 88 46 8.0 20.0 0.00 0.00 0.00 42 1015.6
20260903114017 88 54 12.0 20.0 0.00 0.00 0.00 42 1015.7
20260903113516 88 43 9.0 17.0 0.00 0.00 0.00 42 1015.6
20260903113018 88 47 8.0 18.0 0.00 0.00 0.00 41 1015.7
20260903112517 88 50 7.0 15.0 0.00 0.00 0.00 40 1015.7
20260903112010 88 48 10.0 17.0 0.00 0.00 0.00 40 1015.7
20260903111517 88 46 8.0 16.0 0.00 0.00 0.00 39 1015.8
20260903111018 88 41 6.0 14.0 0.00 0.00 0.00 39 1015.8
20260903110517 88 47 6.0 13.0 0.00 0.00 0.00 39 1015.8
20260903110012 88 48 7.0 14.0 0.00 0.00 0.00 38 1015.8
20260903105517 88 35 6.0 15.0 0.00 0.00 0.00 39 1015.8
20260903105018 89 51 7.0 16.0 0.00 0.00 0.00 39 1015.8
20260903104517 88 38 6.0 13.0 0.00 0.00 0.00 39 1015.8
20260903104016 88 41 9.0 18.0 0.00 0.00 0.00 40 1015.9
20260903103516 88 41 10.0 18.0 0.00 0.00 0.00 39 1016.0
20260903103011 88 40 7.0 15.0 0.00 0.00 0.00 38 1015.9
20260903102518 88 43 7.0 17.0 0.00 0.00 0.00 38 1016.0
20260903102014 88 43 6.0 16.0 0.00 0.00 0.00 38 1016.1
20260903101515 89 44 9.0 20.0 0.00 0.00 0.00 38 1016.0
20260903100517 89 40 3.0 9.0 0.00 0.00 0.00 39 1016.0
20260903100018 88 52 5.0 9.0 0.00 0.00 0.00 39 1016.1
20260903095010 88 43 3.0 9.0 0.00 0.00 0.00 39 1016.1
20260903094515 89 28 5.0 12.0 0.00 0.00 0.00 37 1016.2
20260903094017 88 46 4.0 10.0 0.00 0.00 0.00 38 1016.3
20260903093516 88 51 5.0 12.0 0.00 0.00 0.00 39 1016.2
20260903093018 88 52 6.0 15.0 0.00 0.00 0.00 39 1016.3
20260903092509 88 43 5.0 12.0 0.00 0.00 0.00 39 1016.3
20260903092018 88 44 6.0 12.0 0.00 0.00 0.00 39 1016.3
20260903091510 88 55 2.0 7.0 0.00 0.00 0.00 39 1016.3
20260903091015 87 45 5.0 9.0 0.00 0.00 0.00 40 1016.3
20260903090516 87 40 5.0 13.0 0.00 0.00 0.00 39 1016.3
20260903090018 87 22 2.0 7.0 0.00 0.00 0.00 41 1016.3
20260903085511 86 57 6.0 12.0 0.00 0.00 0.00 41 1016.3
20260903084018 86 55 6.0 13.0 0.00 0.00 0.00 42 1016.3
20260903083517 86 46 4.0 8.0 0.00 0.00 0.00 43 1016.2
20260903083018 85 41 3.0 7.0 0.00 0.00 0.00 44 1016.2
20260903082018 85 46 5.0 8.0 0.00 0.00 0.00 45 1016.2
20260903081517 85 54 2.0 7.0 0.00 0.00 0.00 45 1016.2
20260903081020 85 28 3.0 7.0 0.00 0.00 0.00 46 1016.2
20260903080514 85 42 2.0 6.0 0.00 0.00 0.00 45 1016.1
20260903080018 84 45 4.0 8.0 0.00 0.00 0.00 46 1016.1
20260903075516 84 40 3.0 7.0 0.00 0.00 0.00 47 1016.2
20260903075017 84 49 5.0 9.0 0.00 0.00 0.00 47 1016.2
20260903074018 84 48 3.0 7.0 0.00 0.00 0.00 48 1016.1
20260903073018 83 34 2.0 6.0 0.00 0.00 0.00 50 1016.1
20260903072509 83 46 3.0 5.0 0.00 0.00 0.00 50 1016.0
20260903071517 82 56 2.0 7.0 0.00 0.00 0.00 51 1016.0
20260903071017 82 46 3.0 7.0 0.00 0.00 0.00 51 1016.0
20260903070517 82 43 3.0 7.0 0.00 0.00 0.00 51 1015.9
20260903070012 82 0 2.0 6.0 0.00 0.00 0.00 50 1016.0
20260903065017 82 28 1.0 3.0 0.00 0.00 0.00 50 1015.9
20260903064510 82 7 1.0 3.0 0.00 0.00 0.00 50 1015.9
20260903064012 81 45 1.0 3.0 0.00 0.00 0.00 51 1015.9
20260903063514 81 26 0.0 3.0 0.00 0.00 0.00 52 1015.9
20260903063018 80 326 2.0 5.0 0.00 0.00 0.00 52 1015.9
20260903062017 79 287 1.0 3.0 0.00 0.00 0.00 53 1015.9
20260903061516 79 309 1.0 3.0 0.00 0.00 0.00 53 1015.9
20260903061018 78 289 1.0 3.0 0.00 0.00 0.00 54 1015.9
20260903060517 78 42 1.0 3.0 0.00 0.00 0.00 54 1015.9
20260903060016 78 297 1.0 3.0 0.00 0.00 0.00 54 1015.9
20260903055518 77 224 0.0 3.0 0.00 0.00 0.00 54 1015.9
20260903055017 77 265 0.0 3.0 0.00 0.00 0.00 55 1015.9
20260903054519 76 250 1.0 3.0 0.00 0.00 0.00 55 1015.9
20260903054017 76 267 0.0 3.0 0.00 0.00 0.00 56 1015.9
20260903053516 75 262 0.0 3.0 0.00 0.00 0.00 57 1015.9
20260903052018 74 261 1.0 2.0 0.00 0.00 0.00 59 1015.8
20260903051517 74 35 0.0 1.0 0.00 0.00 0.00 60 1015.8
20260903051017 74 256 0.0 3.0 0.00 0.00 0.00 61 1015.7
20260903050517 74 273 0.0 3.0 0.00 0.00 0.00 62 1015.7
20260903050018 74 281 1.0 3.0 0.00 0.00 0.00 63 1015.8
20260903045517 74 254 1.0 2.0 0.00 0.00 0.00 64 1015.7
20260903045018 74 253 0.0 2.0 0.00 0.00 0.00 66 1015.7
20260903044516 74 253 0.0 2.0 0.00 0.00 0.00 67 1015.7
20260903044009 73 253 0.0 2.0 0.00 0.00 0.00 68 1015.6
20260903043517 73 253 0.0 1.0 0.00 0.00 0.00 69 1015.6
20260903042516 73 253 1.0 3.0 0.00 0.00 0.00 70 1015.5
20260903041531 73 253 0.0 1.0 0.00 0.00 0.00 71 1015.4
20260903040517 73 253 1.0 3.0 0.00 0.00 0.00 72 1015.5
20260903040017 73 253 1.0 3.0 0.00 0.00 0.00 72 1015.4
20260903035516 73 253 0.0 1.0 0.00 0.00 0.00 73 1015.5
20260903035017 73 253 0.0 1.0 0.00 0.00 0.00 73 1015.5
20260903034517 73 253 1.0 3.0 0.00 0.00 0.00 73 1015.5
20260903034017 73 254 1.0 3.0 0.00 0.00 0.00 73 1015.6
20260903033511 73 254 0.0 2.0 0.00 0.00 0.00 73 1015.6
20260903033018 73 254 0.0 1.0 0.00 0.00 0.00 73 1015.6
20260903032510 73 254 0.0 1.0 0.00 0.00 0.00 73 1015.7
20260903032018 73 254 0.0 2.0 0.00 0.00 0.00 73 1015.7
20260903031517 73 254 0.0 0.0 0.00 0.00 0.00 73 1015.7
20260903031017 73 254 0.0 0.0 0.00 0.00 0.00 72 1015.7
20260903030010 73 254 0.0 1.0 0.00 0.00 0.00 71 1015.7
20260903025516 74 254 0.0 0.0 0.00 0.00 0.00 70 1015.7
20260903024517 74 254 0.0 2.0 0.00 0.00 0.00 70 1015.8
20260903024011 75 9 1.0 3.0 0.00 0.00 0.00 69 1015.8
20260903023517 75 270 1.0 2.0 0.00 0.00 0.00 68 1015.8
20260903023017 75 289 1.0 2.0 0.00 0.00 0.00 68 1015.9
20260903022516 75 293 1.0 6.0 0.00 0.00 0.00 67 1015.9
20260903022017 75 281 2.0 6.0 0.00 0.00 0.00 67 1015.9
20260903021516 76 353 2.0 5.0 0.00 0.00 0.00 66 1015.9
20260903021010 76 31 1.0 3.0 0.00 0.00 0.00 66 1015.9
20260903020516 76 348 2.0 5.0 0.00 0.00 0.00 65 1016.0
20260903020016 76 329 2.0 5.0 0.00 0.00 0.00 65 1016.0
20260903015018 77 33 2.0 6.0 0.00 0.00 0.00 64 1016.0
20260903014017 77 43 1.0 3.0 0.00 0.00 0.00 64 1016.0
20260903013516 76 10 1.0 3.0 0.00 0.00 0.00 64 1016.0
20260903013017 76 328 0.0 2.0 0.00 0.00 0.00 65 1016.0
20260903012516 76 333 1.0 3.0 0.00 0.00 0.00 65 1016.1
20260903011517 76 4 1.0 3.0 0.00 0.00 0.00 67 1016.0
20260903011018 76 316 0.0 3.0 0.00 0.00 0.00 68 1016.1
20260903010515 76 315 1.0 3.0 0.00 0.00 0.00 69 1016.1
20260903010010 76 10 1.0 2.0 0.00 0.00 0.00 70 1016.1
20260903005017 76 268 0.0 2.0 0.00 0.00 0.00 70 1016.1
20260903004514 76 290 0.0 2.0 0.00 0.00 0.00 70 1016.1
20260903004017 76 325 0.0 3.0 0.00 0.00 0.00 70 1016.0
20260903003018 76 258 0.0 2.0 0.00 0.00 0.00 69 1016.1
20260903002516 76 257 0.0 2.0 0.00 0.00 0.00 68 1016.0
20260903002017 76 257 0.0 1.0 0.00 0.00 0.00 68 1016.0
20260903001517 76 257 0.0 2.0 0.00 0.00 0.00 67 1015.9
20260903001010 76 258 0.0 1.0 0.00 0.00 0.00 66 1016.0
20260903000516 76 258 0.0 5.0 0.00 0.00 0.00 66 1015.9
20260903000017 76 257 1.0 5.0 0.00 0.00 0.00 66 1015.9